Weather History for Providence, RI

Change the Weather History Date:

Tuesday, November 15, 2011

  Actual Average Record
Temperature  
Mean Temperature 63 °F 45 °F  
Max Temperature 71 °F 54 °F 78 °F (1993)
Min Temperature 55 °F 36 °F 18 °F (1905)
Degree Days  
Heating Degree Days 2 20  
Month to date heating degree days 230 273  
Since 1 July heating degree days 573 731  
Cooling Degree Days 0 0  
Month to date cooling degree days 0 0  
Year to date cooling degree days 921 744  
Growing Degree Days 12 (Base 50)    
Moisture  
Dew Point 51 °F    
Average Humidity 67    
Maximum Humidity 86    
Minimum Humidity 48    
Precipitation  
Precipitation T in 0.15 in 0.85 in (1906)
Month to date precipitation 1.40 2.16  
Year to date precipitation 49.38 40.61  
Snow  
Snow 0.00 in 0.00 in 1.50 in (1906)
Month to date snowfall 0.0 0.3  
Since 1 July snowfall 2.3 0.3  
Since 1 September snowfall 2.3 0.3  
Snow Depth 0.00 in    
Sea Level Pressure  
Sea Level Pressure 29.82 in    
Wind  
Wind Speed 7 mph (WSW)    
Max Wind Speed 17 mph    
Max Gust Speed 25 mph    
Visibility 10 miles    
Events Rain    
T = Trace of Precipitation, MM = Missing Value Source: NWS Daily Summary

Daily Weather History Graph

Daily Weather History Graph

Search for Another Location

Airport:

Trip Planner

Search our weather history database for the weather conditions in past years. The results will help you decide how hot, cold, wet, or windy it might be!

Date:

Astronomy

Nov. 15, 2011 Rise Set
Actual Time 6:34 AM EST 4:25 PM EST
Civil Twilight 6:04 AM EST 4:55 PM EST
Nautical Twilight 5:31 AM EST 5:28 PM EST
Astronomical Twilight 4:58 AM EST 6:01 PM EST
Moon 8:31 PM EST (11/15) 10:32 AM EST (11/15)
Length of Visible Light 10h 50m
Length of Day
9h 50m
Waning Gibbous, 79% of the Moon is Illuminated
Nov 15
Waning Gibbous
Nov 18
Last Quarter
Nov 25
New
Dec 2
First Quarter
Dec 10
Full

Hourly Weather History & Observations

Time (EST) Temp. Dew Point Humidity Pressure Visibility Wind Dir Wind Speed Gust Speed Precip Events Conditions
12:51 AM 60.1 °F 53.1 °F 78% 29.74 in 10.0 mi SW 13.8 mph 21.9 mph N/A   Mostly Cloudy
1:51 AM 61.0 °F 53.1 °F 75% 29.77 in 10.0 mi WSW 12.7 mph 17.3 mph N/A   Mostly Cloudy
2:51 AM 57.9 °F 53.1 °F 84% 29.74 in 10.0 mi South 6.9 mph - N/A   Overcast
3:51 AM 57.9 °F 53.1 °F 84% 29.73 in 10.0 mi SSW 8.1 mph - N/A   Clear
4:51 AM 57.0 °F 53.1 °F 87% 29.73 in 10.0 mi SSW 6.9 mph - N/A   Mostly Cloudy
5:51 AM 57.0 °F 53.1 °F 87% 29.73 in 10.0 mi SSW 8.1 mph - N/A   Mostly Cloudy
6:51 AM 57.0 °F 53.1 °F 87% 29.75 in 10.0 mi SSW 8.1 mph - N/A   Mostly Cloudy
7:51 AM 57.2 °F 53.6 °F 88% 29.76 in 10.0 mi SSW 10.4 mph - N/A   Mostly Cloudy
8:51 AM 61.0 °F 54.0 °F 78% 29.78 in 10.0 mi SW 8.1 mph - N/A   Mostly Cloudy
9:51 AM 66.0 °F 53.1 °F 63% 29.78 in 10.0 mi SW 11.5 mph 20.7 mph N/A   Mostly Cloudy
10:51 AM 70.0 °F 51.1 °F 51% 29.77 in 10.0 mi West 13.8 mph - N/A   Mostly Cloudy
11:51 AM 68.0 °F 50.0 °F 52% 29.78 in 10.0 mi WSW 16.1 mph - N/A   Mostly Cloudy
12:51 PM 68.0 °F 48.0 °F 49% 29.78 in 10.0 mi WNW 9.2 mph - N/A   Mostly Cloudy
1:51 PM 66.0 °F 46.0 °F 48% 29.81 in 10.0 mi NW 11.5 mph 20.7 mph N/A   Overcast
2:51 PM 64.9 °F 46.0 °F 50% 29.83 in 10.0 mi WNW 4.6 mph - N/A   Overcast
3:51 PM 64.0 °F 46.0 °F 52% 29.84 in 10.0 mi NW 3.5 mph - N/A   Overcast
4:51 PM 63.0 °F 46.9 °F 56% 29.87 in 10.0 mi NW 6.9 mph - N/A   Overcast
5:51 PM 61.0 °F 46.9 °F 60% 29.90 in 10.0 mi Calm Calm - 0.00 in Rain Light Rain
6:51 PM 60.1 °F 48.9 °F 67% 29.91 in 10.0 mi NNW 3.5 mph - 0.00 in   Overcast
7:51 PM 57.0 °F 51.1 °F 81% 29.94 in 10.0 mi Calm Calm - N/A   Overcast
8:51 PM 55.9 °F 51.1 °F 84% 29.95 in 10.0 mi South 4.6 mph - 0.00 in   Overcast
9:51 PM 57.9 °F 51.1 °F 78% 29.94 in 10.0 mi Calm Calm - N/A   Overcast
10:51 PM 55.9 °F 50.0 °F 80% 29.96 in 10.0 mi Calm Calm - N/A   Overcast
11:51 PM 55.9 °F 51.1 °F 84% 29.97 in 10.0 mi SSW 3.5 mph - N/A   Overcast